www.pogodaiklimat.ru

Погода и климат >> Архив погоды >> Германия >> Аугсбург


ПОГОДА в Аугсбург

  • Прогноз погоды в Аугсбург
  • Монитор погоды в Аугсбург

АРХИВ ПОГОДЫ в Аугсбург

Время (UTC), дата Ветер
(напр.,м/с)
 
Видим.   Явления Облачность Т
(С)
Тd
(С)
f
(%)
Тe
(С)
Тes
(С)
Комфортность P
(гПа)
Po
(гПа)
Тmin
(С)
Tmax
(С)
R
(мм)
R24
(мм)
S
(см)
19 15.08 З 3 19 км слаб. дождь 9/0 2000 м
[]
+17.4 +14.5 83 +17 +17 1015.8 961.4
20 15.08 ЮЗ 5 50 км в посл. час дождь {морось} 10/0 2000 м
[]
+16.3 +13.3 82 +15 +15 1016.9 962.2
21 15.08 З 6 45 км в посл. час дождь {морось} 10/0 2000 м
[]
+16.1 +13.0 82 +15 +15 1017.5 962.8 0.1
22 15.08 З 5-7
{7}
40 км в посл. час дождь {морось} 9/0 2000 м
[]
+15.4 +13.5 88 +14 +14 1018.2 963.3
23 15.08 З 3-5
{8}
45 км 6/0
[]
+14.7 +13.0 90 +14 +14 1018.6 963.6
00 16.08 З 3 40 км в посл. час дождь {морось} 10/10 600 м
[]
+15.2 +13.2 88 +14 +14 1018.8 963.8 0.1
01 16.08 З 3 40 км 9/9 1300 м
[]
+14.2 +12.6 90 +13 +13 1019.1 963.9
02 16.08 З 3 65 км 10/10 1500 м
[]
+14.9 +12.6 86 +14 +14 1019.4 964.3
03 16.08 З 4 50 км 10/10 750 м
[]
+14.2 +12.2 88 +13 +13 1019.9 964.7
04 16.08 З 2-3
{4}
35 км 10/0
[]
+13.6 +11.9 89 +13 +13 1020.2 964.8
05 16.08 З 3-5
{5}
27 км 5/0
[]
+13.8 +11.3 85 +13 +13 1020.0 964.7
06 16.08 З 3 22 км ясно +14.8 +11.6 81 +14 +15 1020.0 964.9 +13.5 +18.4 0.2
07 16.08 З 4-6
{6}
17 км ясно +16.4 +11.6 73 +16 +19 1019.9 965.1
08 16.08 З 4-6
{7}
16 км ясно +17.5 +11.1 66 +17 +22 1019.8 965.2
09 16.08 СЗ 5 17 км 5/5 1000 м
[]
+18.2 +10.9 62 +18 +21 1019.8 965.3
10 16.08 З 4 30 км 4/4 1110 м
[]
+19.6 +11.3 59 +21 +26 комфорт 1019.0 964.8
11 16.08 СЗ 4 35 км 9/9 1300 м
[]
+18.3 +10.4 60 +18 +19 1019.1 964.6
12 16.08 СЗ 3 40 км 3/3 1200 м
[]
+20.2 +10.1 52 +22 +30 комфорт 1018.1 964.0
13 16.08 СЗ 4 30 км 5/5 1500 м
[]
+21.4 +9.7 47 +23 +27 комфорт 1017.3 963.5
14 16.08 СЗ 3 35 км 10/0 2000 м
[]
+22.1 +10.2 47 +24 +28 комфорт 1016.8 963.1
15 16.08 З 3 40 км 10/0
[]
+21.9 +9.9 46 +23 +26 комфорт 1016.4 962.7
16 16.08 С 1 70 км 10/0
[]
+22.1 +9.3 44 +24 +25 комфорт 1015.8 962.2
17 16.08 З 2 50 км 10/0
[]
+22.0 +8.5 42 +23 +24 комфорт 1015.4 961.8
18 16.08 С 1 70 км 10/0
[]
+20.4 +12.0 59 +23 +23 комфорт 1015.5 961.6 +14.9 +22.6
19 16.08 ЮВ 2 24 км 10/0
[]
+15.9 +12.3 79 +16 +16 1016.5 961.8
20 16.08 В 1 50 км 9/0
[]
+13.5 +11.6 88 +14 +14 1017.1 961.9
21 16.08 В 1-1
{2}
40 км ясно +12.6 +11.0 90 +13 +13 1017.0 961.6
22 16.08 В 1-2
{2}
35 км 10/0
[]
+11.0 +10.0 94 +11 +11 1017.4 961.7
23 16.08 Ю 1 28 км 9/0
[]
+10.7 +10.1 96 +10 +10 1017.4 961.6
00 17.08 Ю 1 24 км 10/0
[]
+10.8 +10.4 97 +10 +10 1016.7 961.0
01 17.08 ЮВ 2 21 км 10/0
[]
+9.9 +9.1 95 +8 +8 1016.9 961.0
02 17.08 Ю 1 30 км 10/0
[]
+12.5 +10.9 90 +12 +12 1016.3 960.9
03 17.08 Ю 3 30 км 10/0
[]
+12.6 +11.0 90 +11 +11 1015.7 960.4
04 17.08 Ю 2 29 км 10/0
[]
+11.9 +10.7 92 +11 +11 1016.1 960.6
05 17.08 Ю 2 30 км 10/0
[]
+12.5 +11.0 91 +12 +12 1015.6 960.3
06 17.08 ЮВ 2 24 км 10/0
[]
+14.2 +11.7 85 +14 +15 1015.7 960.7 +9.8 +20.5
07 17.08 Ю 2 40 км 10/0
[]
+16.4 +12.4 77 +17 +19 1015.6 961.0
08 17.08 Ю 2 40 км в посл. час дождь 10/0
[]
+18.3 +12.7 70 +19 +23 1014.9 960.7
09 17.08 З 5 27 км {дождь} 10/0
[]
+20.8 +12.2 58 +23 +26 комфорт 1014.4 960.7 0.0
10 17.08 З 3 35 км 10/0
[]
+21.7 +13.3 59 +24 +30 комфорт 1014.1 960.6
11 17.08 З 2 40 км 10/0
[]
+23.1 +12.9 53 +26 +33 жарко 1013.8 960.5
12 17.08 З 2 50 км в посл. час дождь {морось} 10/0 2000 м
[]
+23.0 +12.5 52 +26 +33 жарко 1013.7 960.4 0.0
13 17.08 З 1 55 км в посл. час дождь {морось} 10/0 2000 м
[]
+23.5 +13.3 53 +26 +33 жарко 1012.8 959.6
14 17.08 ЮЗ 4 40 км 10/0
[]
+23.6 +11.3 46 +25 +28 комфорт 1012.4 959.2
15 17.08 ЮЗ 4 45 км {дождь, морось} 10/0
[]
+24.8 +12.2 45 +26 +29 жарко 1011.9 959.0 0.0
16 17.08 ЮЗ 4-5
{6}
70 км 10/0
[]
+22.4 +13.1 56 +25 +26 комфорт 1012.4 959.1
17 17.08 З 4 65 км в посл. час дождь 10/0
[]
+22.2 +11.8 52 +25 +25 комфорт 1013.2 959.8
18 17.08 З 3 60 км в посл. час дождь {морось} 9/0 2000 м
[]
+20.3 +12.3 60 +23 +23 комфорт 1013.5 959.7 +14.4 +24.8 0.0
19 17.08 СЗ 1-2
{5}
30 км в посл. час дождь {морось} 9/0
[]
+18.4 +14.2 77 +20 +20 1013.5 959.4
20 17.08 С 2 28 км слаб. дождь {морось} 10/0 2000 м
[]
+18.1 +14.6 80 +19 +19 1013.9 959.8
21 17.08 С 2 29 км в посл. час дождь {морось} 10/0 2000 м
[]
+17.2 +14.3 83 +18 +18 1013.9 959.6 0.2
22 17.08 ЮВ 1 29 км 10/0 2000 м
[]
+16.4 +15.4 94 +17 +17 1013.7 959.3
23 17.08 В 2 40 км 10/0
[]
+16.2 +15.2 94 +16 +16 1013.5 959.1
00 18.08 В 1 35 км {дождь, морось} 10/0
[]
+16.0 +14.5 91 +17 +17 1012.9 958.4
01 18.08 Ю 2 35 км 9/0
[]
+15.8 +13.8 88 +16 +16 1012.7 958.2
02 18.08 Ю 2 40 км 10/0
[]
+16.5 +13.7 84 +17 +17 1012.0 957.7
03 18.08 В 1 30 км 10/0
[]
+15.2 +13.7 91 +16 +16 1011.7 957.1
04 18.08 Ю 1 30 км 10/0
[]
+15.7 +13.5 87 +16 +16 1011.6 957.1
05 18.08 Ю 1-2
{3}
30 км 9/0
[]
+15.7 +13.8 88 +16 +17 1011.8 957.3
06 18.08 ЮВ 1 30 км 6/0
[]
+17.1 +14.6 85 +18 +19 1011.8 957.6 +14.6 +20.9 0.2
07 18.08 Ю 2-3
{4}
30 км 1/0
[]
+19.6 +15.2 76 +22 +26 комфорт 1011.3 957.6
08 18.08 ЮВ 1-2
{3}
40 км ясно +23.4 +14.7 58 +27 +36 душно 1010.5 957.5
09 18.08 З 4 23 км ясно +26.0 +15.7 53 +29 +36 душно 1009.8 957.3
10 18.08 З 4-6
{8}
15 км ясно +27.5 +14.2 44 +30 +39 жарко 1009.4 957.1
11 18.08 З 5-7
{7}
9000 м ясно +28.3 +13.9 41 +30 +38 жарко 1009.0 956.9
12 18.08 З 4-8
{9}
18 км ясно +29.7 +13.4 37 +31 +41 жарко 1008.4 956.5
13 18.08 З 5-7
{10}
16 км ясно +30.6 +14.2 37 +32 +39 жарко 1007.8 956.1
14 18.08 З 4-7
{8}
28 км ясно +31.1 +13.4 34 +32 +39 жарко 1007.5 955.9
15 18.08 З 3-5
{10}
28 км ясно +31.2 +12.6 32 +32 +37 жарко 1006.9 955.3
16 18.08 З 3-4
{8}
20 км ясно +31.5 +11.2 29 +32 +34 жарко 1006.5 955.0
17 18.08 ЮЗ 5-7
{7}
40 км 8/0
[]
+30.1 +13.2 36 +32 +32 жарко 1006.7 955.0
18 18.08 ЮЗ 4 40 км ясно +27.9 +13.2 40 +30 +30 жарко 1007.2 955.1 +17.1 +31.7
19 18.08 СЗ 3-4
{5}
30 км 3/0
[]
+24.0 +15.9 61 +27 +27 жарко 1008.7 955.9
20 18.08 С 3-4
{5}
35 км 8/0
[]
+23.2 +16.7 67 +28 +28 душно 1009.8 956.8
21 18.08 СЗ 3 30 км 10/0
[]
+23.2 +15.9 64 +28 +28 душно 1010.4 957.4
22 18.08 С 5 40 км 10/0
[]
+20.9 +15.6 72 +24 +24 комфорт 1010.9 957.4
23 18.08 СЗ 4 28 км слаб. морось {дождь} 10/0 2000 м
[]
+19.9 +17.1 84 +23 +23 комфорт 1012.7 959.0
00 19.08 СЗ 6 27 км слаб. дождь 10/10 300 м
[]
+17.7 +16.2 91 +17 +17 1015.0 960.8 2
01 19.08 ЮЗ 2 3200 м дождь {морось} 9/9 300 м
[]
+16.7 +15.9 95 +17 +17 1016.4 961.9
02 19.08 Ю 2-3
{8}
11 км слаб. дождь 9/0
[]
+16.5 +15.9 96 +17 +17 1016.7 962.2
03 19.08 Ю 3 24 км слаб. дождь {морось} 10/0
[]
+16.5 +15.9 96 +16 +16 1016.7 962.2 8
04 19.08 ЮЗ 2 16 км слаб. дождь {морось} 9/0 2000 м
[]
+17.0 +16.1 94 +17 +17 1016.5 962.1
05 19.08 Ю 4 20 км слаб. дождь 9/0
[]
+16.5 +15.7 95 +16 +16 1016.3 961.8
06 19.08 Ю 2 50 км в посл. час дождь {морось} 9/9 1000 м
[]
+16.8 +15.7 93 +17 +17 1016.9 962.4 +16.4 +28.1 13
07 19.08 ЮЗ 2 40 км слаб. дождь {морось} 9/9 800 м
[]
+17.8 +16.3 91 +18 +19 1017.1 962.8
08 19.08 ЮЗ 3 40 км слаб. дождь {морось} 9/9 800 м
[]
+18.1 +16.0 88 +18 +19 1016.8 962.5
09 19.08 ЮЗ 3 50 км в посл. час дождь {морось} 10/10 1500 м
[]
+19.2 +16.5 84 +21 +21 комфорт 1017.3 963.2 0.0
10 19.08 ЮЗ 4 50 км 9/9 1200 м
[]
+19.3 +16.4 83 +21 +22 комфорт 1017.2 963.1
11 19.08 СЗ 3 55 км 10/10 600 м
[]
+20.5 +16.2 76 +24 +24 комфорт 1017.1 963.3
12 19.08 З 4 35 км {дождь, морось} 10/10 840 м
[]
+21.4 +15.8 70 +25 +25 комфорт 1017.0 963.3
13 19.08 З 3 40 км 9/9 870 м
[]
+23.1 +17.1 69 +28 +29 душно 1016.8 963.4
14 19.08 С 4 29 км 9/9 900 м
[]
+21.9 +17.3 75 +26 +27 душно 1017.1 963.5
15 19.08 С 3 45 км 10/0
[]
+21.4 +16.4 73 +25 +28 комфорт 1017.4 963.7
16 19.08 С 3 40 км 10/0
[]
+21.0 +16.2 74 +25 +26 комфорт 1017.4 963.6
17 19.08 С 2 50 км 10/10 1350 м
[]
+21.0 +16.9 77 +25 +25 комфорт 1017.6 963.8
18 19.08 С 2 45 км в посл. час дождь 10/10 1000 м
[]
+19.7 +17.0 84 +23 +23 комфорт 1018.1 964.1 +16.9 +23.4 0.0
19 19.08 С 3 13 км слаб. дождь 10/10 1200 м
[]
+19.5 +16.6 83 +22 +22 комфорт 1018.6 964.5
20 19.08 ЮВ 2 21 км в посл. час дождь {морось} 10/0
[]
+17.5 +17.0 97 +18 +18 1019.1 964.6
21 19.08 СЗ 1 17 км {дождь, морось} 9/9 1080 м
[]
+17.2 +17.1 99 +18 +18 1019.5 965.0 0.4
22 19.08 Ю 2 19 км слаб. морось {дождь} 10/10 1380 м
[]
+17.6 +16.8 95 +18 +18 1019.9 965.4
23 19.08 ЮВ 2 5000 м слаб. дождь {морось} 10/0 2000 м
[]
+17.1 +16.7 97 +17 +17 1020.0 965.4
00 20.08 СЗ 1 18 км в посл. час дождь {морось} 9/9 1000 м
[]
+17.0 +16.6 97 +18 +18 1020.2 965.6 1
01 20.08 СЗ 2 7000 м слаб. морось {дождь} 9/9 800 м
[]
+16.7 +16.6 99 +17 +17 1020.1 965.4
02 20.08 ЮВ 1 5000 м в посл. час дождь {морось} 10/10 60 м
[]
+16.3 +16.3 100 +17 +17 1020.1 965.3
03 20.08 С 1 3600 м дымка {дождь} 10/10 800 м
[]
+16.2 +16.2 100 +17 +17 1020.1 965.3 0.7
04 20.08 СВ 1 2700 м дымка 10/10 1170 м
[]
+16.2 +16.2 100 +17 +17 1020.0 965.2
05 20.08 Ю 1 4200 м в посл. час туман {дымка} 10/10 800 м
[]
+16.3 +16.3 100 +17 +17 1020.3 965.5
06 20.08 Ю 2 8000 м {дождь, морось} 10/10 1000 м
[]
+17.4 +17.1 98 +18 +18 1019.9 965.4 +15.9 +19.8 2
07 20.08 ЮЗ 1 10 км 9/9 150 м
[]
+17.7 +17.2 97 +19 +19 1020.1 965.6
08 20.08 З 1 9000 м в посл. час дождь 10/10 540 м
[]
+17.8 +16.9 94 +19 +19 1020.3 965.8
09 20.08 СЗ 2 10 км в посл. час дождь {морось} 9/9 300 м
[]
+18.0 +16.8 93 +19 +20 1020.8 966.3 0.3
10 20.08 В 1 7000 м слаб. дождь {морось} 5/5 1500 м
[]
+18.5 +17.2 92 +20 +28 1020.3 966.0
11 20.08 С 3 3500 м слаб. дождь 10/10 240 м
[]
+18.1 +17.3 95 +18 +18 1020.4 966.0
12 20.08 СЗ 3 3900 м дождь {морось} 10/10 210 м
[]
+17.3 +16.6 96 +17 +17 1020.4 965.8 3
13 20.08 СЗ 5 10 км в посл. час дождь {морось} 9/9 240 м
[]
+16.7 +15.5 93 +16 +16 1020.8 966.1
14 20.08 С 4 9000 м слаб. дождь {морось} 10/10 1000 м
[]
+16.3 +15.1 93 +16 +16 1021.0 966.2
15 20.08 С 4 7000 м слаб. морось с дождем 10/10 400 м
[]
+16.3 +15.1 93 +16 +16 1021.8 966.9 1
16 20.08 С 5 5000 м слаб. дождь 9/9 330 м
[]
+15.4 +14.3 93 +14 +14 1022.4 967.3
17 20.08 СЗ 6 3600 м дождь {морось} 10/10 180 м
[]
+14.5 +13.5 94 +13 +13 1024.1 968.7
18 20.08 СЗ 4 4500 м дождь {морось} 9/9 200 м
[]
+13.8 +13.4 97 +12 +12 1024.8 969.3 +13.8 +18.5 7
19 20.08 СЗ 4 5000 м слаб. дождь 9/9 240 м
[]
+13.3 +12.9 97 +11 +11 1026.2 970.5
20 20.08 СЗ 3 5000 м дождь 9/9 210 м
[]
+13.3 +12.9 97 +12 +12 1027.1 971.3
21 20.08 СЗ 2 4500 м дождь 9/9 210 м
[]
+13.4 +13.1 98 +13 +13 1027.4 971.6 6
22 20.08 СЗ 2 13 км слаб. дождь 6/6 1500 м
[]
+12.8 +12.3 97 +12 +12 1027.8 971.9
23 20.08 Ю 1-1
{3}
14 км слаб. дождь 4/0 2000 м
[]
+12.6 +12.2 97 +12 +12 1028.2 972.2
00 21.08 ЮЗ 1 9000 м слаб. дождь 8/0 2000 м
[]
+12.6 +12.3 98 +12 +12 1028.4 972.4 4
01 21.08 ЮЗ 1 6000 м в посл. час дождь {морось} 10/10 150 м
[]
+12.5 +12.4 99 +12 +12 1028.6 972.6
02 21.08 штиль 0 7000 м в посл. час дождь {морось} 10/10 120 м
[]
+12.6 +12.3 98 +12 +12 1028.5 972.5
03 21.08 С 1 4800 м в посл. час дождь {морось} 10/10 150 м
[]
+12.8 +12.6 99 +13 +13 1028.8 972.8 0.1
04 21.08 ЮЗ 1-1
{2}
5000 м дымка 10/0 2000 м
[]
+12.6 +12.4 99 +12 +12 1028.8 972.8
05 21.08 ЮВ 1-1
{1}
3300 м дымка 10/0 2000 м
[]
+12.6 +12.6 100 +12 +13 1029.0 973.0
06 21.08 Ю 1 8000 м {дождь, морось} 10/10 1500 м
[]
+13.2 +12.4 95 +13 +13 1029.3 973.4 +12.3 +13.9 10
07 21.08 СВ 1 11 км 9/9 210 м
[]
+14.1 +12.2 88 +14 +15 1029.1 973.4
08 21.08 СВ 1-2
{3}
19 км 1/1 360 м
[]
+15.5 +11.9 79 +16 +24 1028.8 973.3
09 21.08 В 3 16 км ясно +16.3 +11.6 74 +16 +25 1028.5 973.2
10 21.08 В 4-6
{6}
18 км 5/5 800 м
[]
+17.5 +10.8 65 +17 +22 1028.1 973.0
11 21.08 В 4 16 км 4/4 960 м
[]
+18.2 +11.2 64 +18 +24 1027.6 972.7
12 21.08 В 4 18 км 8/8 1170 м
[]
+18.0 +10.2 60 +18 +20 1027.5 972.5
13 21.08 В 2 35 км 9/9 1320 м
[]
+19.5 +9.8 53 +21 +22 комфорт 1026.9 972.2
14 21.08 В 3 27 км 9/9 1410 м
[]
+18.8 +9.6 55 +20 +20 1026.6 971.8
15 21.08 В 4 30 км 6/6 1380 м
[]
+19.3 +9.6 53 +20 +22 1026.3 971.6
16 21.08 ЮВ 4-5
{5}
30 км 9/9 1470 м
[]
+18.3 +10.4 60 +18 +19 1026.5 971.6
17 21.08 В 2 50 км 9/9 1500 м
[]
+18.1 +11.9 67 +19 +19 1025.9 971.1
18 21.08 В 2 35 км 9/9 1500 м
[]
+17.0 +12.6 75 +17 +17 1026.3 971.3 +13.2 +20.2
19 21.08 В 3 40 км 10/10 1500 м
[]
+15.9 +12.5 80 +15 +15 1026.6 971.3
20 21.08 ЮВ 2 35 км 10/10 1500 м
[]
+14.5 +12.6 88 +14 +14 1027.0 971.5
21 21.08 ЮВ 2 30 км 10/0
[]
+13.7 +12.2 91 +13 +13 1027.2 971.5
22 21.08 В 3-4
{4}
35 км 10/0
[]
+13.9 +12.2 89 +13 +13 1026.7 971.1
23 21.08 В 3-4
{5}
30 км 10/0
[]
+13.9 +12.3 90 +13 +13 1026.3 970.7
00 22.08 СВ 3 30 км 10/0
[]
+13.2 +12.0 92 +12 +12 1026.3 970.5
01 22.08 СВ 3 30 км 10/0
[]
+13.3 +11.8 91 +12 +12 1025.7 970.0
02 22.08 СВ 3 25 км 10/0
[]
+12.8 +11.5 92 +11 +11 1025.5 969.7
03 22.08 СВ 2 30 км 10/0
[]
+12.3 +11.1 92 +11 +11 1025.5 969.6
04 22.08 СВ 3 19 км 9/0
[]
+12.3 +11.3 94 +11 +11 1025.5 969.6
05 22.08 СВ 4 19 км 6/0
[]
+12.3 +11.4 94 +10 +10 1025.7 969.8
06 22.08 СВ 6 7000 м дымка 10/0
[]
+12.9 +12.2 96 +10 +11 1025.8 970.0 +11.9 +17.0
07 22.08 В 4 10 км 10/0
[]
+15.0 +12.6 86 +14 +15 1025.5 970.1
08 22.08 В 4 11 км 8/8 600 м
[]
+17.3 +12.8 75 +17 +18 1025.1 970.2
09 22.08 В 6 21 км 1/1 800 м
[]
+18.0 +12.3 69 +17 +21 1025.0 970.2
10 22.08 В 6-9
{10}
9000 м ясно +18.7 +12.0 65 +19 +24 1025.0 970.3
11 22.08 В 4-6
{9}
25 км 6/6 900 м
[]
+19.1 +12.3 65 +20 +24 1024.8 970.2
12 22.08 В 4 18 км 3/3 960 м
[]
+19.9 +12.1 61 +22 +28 комфорт 1024.3 969.9
13 22.08 В 4-6
{6}
30 км 6/6 1000 м
[]
+20.1 +12.5 62 +22 +25 комфорт 1024.2 969.8
14 22.08 В 3-6
{7}
22 км 4/4 1080 м
[]
+21.3 +12.9 59 +24 +28 комфорт 1023.7 969.6
15 22.08 ЮВ 3 45 км 8/8 1110 м
[]
+20.7 +12.5 59 +23 +24 комфорт 1023.6 969.4
17 22.08 ЮВ 1-4
{4}
65 км 9/9 1170 м
[]
+21.0 +13.2 61 +25 +25 комфорт 1023.6 969.4
18 22.08 ЮВ 2 45 км 1/1 1000 м
[]
+19.1 +14.2 73 +21 +21 комфорт 1024.2 969.7 +12.8 +21.8
19 22.08 Ю 2-3
{3}
30 км ясно +16.2 +14.0 87 +16 +16 1025.4 970.3

 

Местоположение метеостанции Аугсбург (Германия): широта 48.43 долгота 10.93 высота над уровнем моря 477 м.

В архиве по умолчанию представлена погода в Аугсбург за последнюю неделю. Архивные данные за месяц целиком и за предыдущие месяцы, начиная с января 2011 года, Вы можете получить, выбрав интересующий диапазон дат из раскрывающегося списка и нажав кнопку "Ввод!".


*Определитесь, кто Вы:
робот инопланетянин человек

Внимание! Время в таблицах - всемирное. Для получения местного времени необходимо прибавить поправку, которая равна 1 ч.

Смотрите также архив погоды в соседних городах и на ближайших метеорологических станциях:

Погода на Аэродроме Lechfeld (Германия) (28 км)
Погода в Нойбурге-ан-дер-Донау (Германия) (39 км)
Погода в Ландсберге (Германия) (40 км)
Погода в Гарбурге (Германия) (42 км)
Погода в Ингольштадте (Германия) (55 км)
Погода в Мюнхене (Германия) (57 км)
Погода в Вайэнштефане (Германия) (57 км)
Погода в Мюнхене (Германия) (63 км)
Погода в Вайсенбург-ин-Байерне (Германия) (66 км)
Погода в Альтенштадте (Германия) (67 км)

Пояснения к столбцам:

Ветер - указаны скорость ветра в м/с - средняя за 10 мин, порывы в срок и между сроками (в фигурных скобках) и направление, откуда дует ветер: С - северный, СВ - северо-восточный, В - восточный, ЮВ - юго-восточный, Ю - южный, ЮЗ - юго-западный, З - западный, СЗ - северо-западный.
Видимость - горизонтальная дальность видимости в метрах или километрах. При видимости от 1 до 10 км при отсутствии осадков обычно наблюдается дымка, при ухудшении видимости до 1 км и менее - туман. В сухую погоду видимость может ухудшаться дымом, пылью или мглою.
Явления - указаны атмосферные явления, наблюдавшиеся в срок или в последний час перед сроком; фигурными скобками обозначены явления, наблюдавшиеся между сроками (за 1-3 часа до срока); квадратными скобками обозначены град или гололедные отложения с указанием их диаметра в мм.
Облачность - указаны через наклонную черту общая и нижняя облачность в баллах и высота нижней границы облаков в метрах; квадратными скобками обозначены формы облаков: Ci - перистые, Cs - перисто-слоистые, Cc - перисто-кучевые, Ac - высококучевые, As - высокослоистые, Sc - слоисто-кучевые, Ns - слоисто-дождевые, Cu - кучевые, Cb - кучево-дождевые. Подробнее классификацию облаков см. в Атласе облаков (PDF).
T - Температура воздуха - температура, измеренная на высоте 2 м над землей.
Td - Температура точки росы - температура, при понижении до которой содержащийся в воздухе водяной пар достигнет насыщения.
f - Относительная влажность воздуха - влажноcть воздуха, измеренная на высоте 2 м над землей.
Te - Эффективная температура - температура, которую ощущает одетый по сезону человек в тени. Характеристика душности погоды. При расчете учитывается влияние влажности воздуха и скорости ветра на теплоощущения человека.
Tes - Эффективная температура на солнце - температура, которую ощущает человек, с поправкой на солнечный нагрев. Характеристика знойности погоды. Зависит от высоты солнца над горизонтом, облачности и скорости ветра. Ночью, в пасмурную погоду, а также при ветре 12 м/с и более поправка равна нулю.
P - Атмосферное давление - приведенное к уровню моря атмосферное давление.
Po - Атмосферное давление - измеренное на уровне метеостанции атмосферное давление.
Tmin - Минимальная температура - минимум температуры воздуха на высоте 2 м над землей.
Tmax - Максимальная температура - максимум температуры воздуха на высоте 2 м над землей.
R - Количество осадков - Количество выпавших осадков за период времени, мм. При наведении курсора мыши на число - период времени, за который выпало указанное количество осадков.
R24 - Количество осадков - Количество выпавших осадков за 24 часа, мм.
S - Снежный покров - Высота снежного покрова, см. При наведении курсора мыши на число - состояние снежного покрова и степень покрытия местности в баллах.